Time,TemperatureF,DewpointF,PressureIn,WindDirection,WindDirectionDegrees,WindSpeedMPH,WindSpeedGustMPH,Humidity,HourlyPrecipIn,Conditions,Clouds,dailyrainin,SoftwareType,DateUTC
2013-01-30 00:05:00,64.6,60.0,29.61,SSW,203,4.0,20.0,84,0.00,,,0.00,weatherlink.com 1.10,2013-01-30 05:05:00,
2013-01-30 00:20:00,64.8,60.0,29.59,WSW,239,6.0,17.0,83,0.00,,,0.00,weatherlink.com 1.10,2013-01-30 05:20:00,
2013-01-30 00:35:00,64.6,59.0,29.58,SSE,160,2.0,12.0,82,0.00,,,0.00,weatherlink.com 1.10,2013-01-30 05:35:00,
2013-01-30 00:50:00,64.8,59.0,29.57,South,184,10.0,17.0,82,0.00,,,0.00,weatherlink.com 1.10,2013-01-30 05:50:00,
2013-01-30 01:05:00,64.9,59.0,29.56,SW,228,7.0,14.0,81,0.00,,,0.00,weatherlink.com 1.10,2013-01-30 06:05:00,
2013-01-30 01:20:00,64.9,59.0,29.56,South,184,6.0,22.0,81,0.00,,,0.00,weatherlink.com 1.10,2013-01-30 06:20:00,
2013-01-30 01:35:00,64.9,59.0,29.55,SE,131,6.0,14.0,81,0.00,,,0.00,weatherlink.com 1.10,2013-01-30 06:35:00,
2013-01-30 01:50:00,65.1,59.0,29.54,SSW,193,7.0,14.0,81,0.00,,,0.00,weatherlink.com 1.10,2013-01-30 06:50:00,
2013-01-30 02:05:00,65.3,59.0,29.53,South,174,5.0,16.0,80,0.00,,,0.00,weatherlink.com 1.10,2013-01-30 07:05:00,
2013-01-30 02:20:00,65.3,59.0,29.52,South,177,11.0,16.0,80,0.00,,,0.00,weatherlink.com 1.10,2013-01-30 07:20:00,
2013-01-30 02:35:00,65.8,60.0,29.51,South,180,5.0,12.0,80,0.00,,,0.00,weatherlink.com 1.10,2013-01-30 07:35:00,
2013-01-30 02:50:00,66.1,59.0,29.50,South,169,8.0,13.0,79,0.00,,,0.00,weatherlink.com 1.10,2013-01-30 07:50:00,
2013-01-30 03:05:00,66.4,60.0,29.49,SW,224,11.0,16.0,79,0.00,,,0.00,weatherlink.com 1.10,2013-01-30 08:05:00,
2013-01-30 03:20:00,66.7,60.0,29.47,SSE,147,13.0,23.0,78,0.00,,,0.00,weatherlink.com 1.10,2013-01-30 08:20:00,
2013-01-30 03:35:00,67.1,60.0,29.46,SW,224,4.0,18.0,78,0.00,,,0.00,weatherlink.com 1.10,2013-01-30 08:35:00,
2013-01-30 03:50:00,67.2,60.0,29.46,South,169,5.0,18.0,78,0.00,,,0.00,weatherlink.com 1.10,2013-01-30 08:50:00,
2013-01-30 04:05:00,67.1,60.0,29.45,WSW,239,4.0,12.0,78,0.00,,,0.00,weatherlink.com 1.10,2013-01-30 09:05:00,
2013-01-30 04:21:00,67.3,60.0,29.42,SSW,199,4.0,21.0,78,0.00,,,0.00,weatherlink.com 1.10,2013-01-30 09:21:00,
2013-01-30 04:36:00,67.5,60.0,29.40,SW,214,6.0,17.0,77,0.00,,,0.00,weatherlink.com 1.10,2013-01-30 09:36:00,
2013-01-30 04:51:00,67.9,60.0,29.39,SW,215,4.0,16.0,76,0.00,,,0.00,weatherlink.com 1.10,2013-01-30 09:51:00,
2013-01-30 05:06:00,68.2,60.0,29.37,SSW,200,6.0,18.0,76,0.00,,,0.00,weatherlink.com 1.10,2013-01-30 10:06:00,
2013-01-30 05:21:00,68.5,61.0,29.35,SSW,201,6.0,15.0,76,0.00,,,0.00,weatherlink.com 1.10,2013-01-30 10:21:00,
2013-01-30 05:36:00,67.7,61.0,29.36,SW,218,9.0,21.0,78,0.00,,,0.00,weatherlink.com 1.10,2013-01-30 10:36:00,
2013-01-30 05:51:00,61.2,58.0,29.42,North,6,6.0,13.0,88,0.30,,,0.30,weatherlink.com 1.10,2013-01-30 10:51:00,
2013-01-30 06:06:00,56.5,54.0,29.44,NNW,329,5.0,11.0,92,0.38,,,0.38,weatherlink.com 1.10,2013-01-30 11:06:00,
2013-01-30 06:21:00,55.3,54.0,29.49,WNW,284,3.0,9.0,94,0.42,,,0.42,weatherlink.com 1.10,2013-01-30 11:21:00,
2013-01-30 06:36:00,54.2,52.0,29.52,SW,222,4.0,13.0,93,0.43,,,0.43,weatherlink.com 1.10,2013-01-30 11:36:00,
2013-01-30 06:51:00,53.7,52.0,29.52,SW,214,1.0,8.0,94,0.17,,,0.47,weatherlink.com 1.10,2013-01-30 11:51:00,
2013-01-30 07:06:00,53.3,52.0,29.48,ENE,64,0.0,4.0,94,0.11,,,0.49,weatherlink.com 1.10,2013-01-30 12:06:00,
2013-01-30 07:21:00,53.1,52.0,29.49,SE,132,0.0,1.0,95,0.08,,,0.50,weatherlink.com 1.10,2013-01-30 12:21:00,
2013-01-30 07:36:00,52.9,52.0,29.49,NNE,18,0.0,5.0,95,0.09,,,0.52,weatherlink.com 1.10,2013-01-30 12:36:00,
2013-01-30 07:51:00,52.9,52.0,29.51,SW,217,0.0,2.0,96,0.06,,,0.53,weatherlink.com 1.10,2013-01-30 12:51:00,
2013-01-30 08:06:00,52.9,52.0,29.50,ESE,121,0.0,2.0,96,0.07,,,0.56,weatherlink.com 1.10,2013-01-30 13:06:00,
2013-01-30 08:21:00,52.9,52.0,29.50,SSE,162,0.0,3.0,97,0.10,,,0.60,weatherlink.com 1.10,2013-01-30 13:21:00,
2013-01-30 08:36:00,53.0,52.0,29.49,SE,125,0.0,3.0,97,0.10,,,0.62,weatherlink.com 1.10,2013-01-30 13:36:00,
2013-01-30 08:51:00,53.1,52.0,29.49,SSE,149,0.0,2.0,97,0.11,,,0.64,weatherlink.com 1.10,2013-01-30 13:51:00,
2013-01-30 09:06:00,53.3,53.0,29.50,SSW,204,3.0,6.0,97,0.08,,,0.64,weatherlink.com 1.10,2013-01-30 14:06:00,
2013-01-30 09:21:00,53.6,53.0,29.47,South,188,3.0,9.0,97,0.04,,,0.64,weatherlink.com 1.10,2013-01-30 14:21:00,
2013-01-30 09:36:00,54.3,53.0,29.45,ENE,78,2.0,12.0,96,0.02,,,0.64,weatherlink.com 1.10,2013-01-30 14:36:00,
2013-01-30 09:51:00,54.9,53.0,29.44,SW,233,1.0,9.0,93,0.00,,,0.64,weatherlink.com 1.10,2013-01-30 14:51:00,
2013-01-30 10:06:00,55.1,53.0,29.42,South,191,2.0,6.0,92,0.00,,,0.64,weatherlink.com 1.10,2013-01-30 15:06:00,
2013-01-30 10:21:00,55.3,53.0,29.43,South,179,0.0,8.0,92,0.00,,,0.64,weatherlink.com 1.10,2013-01-30 15:21:00,
2013-01-30 10:36:00,55.3,53.0,29.41,South,176,4.0,11.0,92,0.00,,,0.64,weatherlink.com 1.10,2013-01-30 15:36:00,
2013-01-30 10:51:00,55.8,53.0,29.44,SW,235,4.0,11.0,90,0.00,,,0.64,weatherlink.com 1.10,2013-01-30 15:51:00,
2013-01-30 11:06:00,55.9,53.0,29.44,SSW,201,3.0,10.0,90,0.00,,,0.64,weatherlink.com 1.10,2013-01-30 16:06:00,
2013-01-30 11:21:00,56.0,53.0,29.44,SSW,201,4.0,13.0,90,0.00,,,0.64,weatherlink.com 1.10,2013-01-30 16:21:00,
2013-01-30 11:36:00,56.1,53.0,29.41,SW,231,10.0,13.0,89,0.00,,,0.64,weatherlink.com 1.10,2013-01-30 16:36:00,
2013-01-30 11:51:00,56.4,53.0,29.41,SSW,210,6.0,9.0,89,0.00,,,0.64,weatherlink.com 1.10,2013-01-30 16:51:00,
2013-01-30 12:06:00,56.8,53.0,29.42,WSW,240,11.0,13.0,88,0.00,,,0.64,weatherlink.com 1.10,2013-01-30 17:06:00,
2013-01-30 12:21:00,56.8,53.0,29.42,WSW,243,3.0,12.0,88,0.00,,,0.64,weatherlink.com 1.10,2013-01-30 17:21:00,
2013-01-30 12:36:00,57.1,53.0,29.43,South,188,5.0,16.0,87,0.00,,,0.64,weatherlink.com 1.10,2013-01-30 17:36:00,
2013-01-30 12:51:00,57.1,53.0,29.41,South,174,2.0,15.0,87,0.00,,,0.64,weatherlink.com 1.10,2013-01-30 17:51:00,
2013-01-30 13:06:00,57.1,53.0,29.41,SSW,207,8.0,12.0,86,0.00,,,0.64,weatherlink.com 1.10,2013-01-30 18:06:00,
2013-01-30 13:21:00,57.0,53.0,29.40,SW,225,5.0,12.0,86,0.00,,,0.64,weatherlink.com 1.10,2013-01-30 18:21:00,
2013-01-30 13:36:00,57.1,53.0,29.40,SW,218,2.0,15.0,85,0.00,,,0.64,weatherlink.com 1.10,2013-01-30 18:36:00,
2013-01-30 13:51:00,57.0,52.0,29.38,SSW,194,6.0,14.0,84,0.00,,,0.64,weatherlink.com 1.10,2013-01-30 18:51:00,
2013-01-30 14:06:00,57.1,52.0,29.37,South,176,3.0,14.0,84,0.00,,,0.64,weatherlink.com 1.10,2013-01-30 19:06:00,
2013-01-30 14:21:00,56.9,52.0,29.34,South,191,4.0,11.0,84,0.00,,,0.64,weatherlink.com 1.10,2013-01-30 19:21:00,
2013-01-30 14:37:00,57.0,52.0,29.34,SW,214,5.0,9.0,84,0.00,,,0.64,weatherlink.com 1.10,2013-01-30 19:37:00,
2013-01-30 14:52:00,56.9,52.0,29.36,SSW,201,4.0,13.0,83,0.00,,,0.64,weatherlink.com 1.10,2013-01-30 19:52:00,
2013-01-30 15:07:00,56.8,51.0,29.36,WSW,243,8.0,11.0,82,0.00,,,0.64,weatherlink.com 1.10,2013-01-30 20:07:00,
2013-01-30 15:22:00,56.8,51.0,29.36,SW,217,1.0,13.0,82,0.00,,,0.64,weatherlink.com 1.10,2013-01-30 20:22:00,
2013-01-30 15:37:00,56.7,51.0,29.36,SW,228,5.0,13.0,81,0.00,,,0.64,weatherlink.com 1.10,2013-01-30 20:37:00,
2013-01-30 15:52:00,56.5,51.0,29.35,SSW,195,4.0,13.0,81,0.00,,,0.64,weatherlink.com 1.10,2013-01-30 20:52:00,
2013-01-30 16:07:00,56.4,51.0,29.32,South,176,2.0,15.0,81,0.00,,,0.64,weatherlink.com 1.10,2013-01-30 21:07:00,
2013-01-30 16:22:00,56.4,51.0,29.34,West,260,5.0,17.0,81,0.00,,,0.64,weatherlink.com 1.10,2013-01-30 21:22:00,
2013-01-30 16:37:00,56.2,50.0,29.34,South,177,6.0,12.0,81,0.00,,,0.64,weatherlink.com 1.10,2013-01-30 21:37:00,
2013-01-30 16:52:00,56.1,50.0,29.33,SSW,195,3.0,14.0,81,0.00,,,0.64,weatherlink.com 1.10,2013-01-30 21:52:00,
2013-01-30 17:07:00,55.9,50.0,29.32,WSW,255,4.0,12.0,81,0.00,,,0.64,weatherlink.com 1.10,2013-01-30 22:07:00,
2013-01-30 17:22:00,55.7,50.0,29.32,West,271,6.0,13.0,81,0.00,,,0.64,weatherlink.com 1.10,2013-01-30 22:22:00,
2013-01-30 17:37:00,55.7,49.0,29.32,SW,219,6.0,13.0,79,0.00,,,0.64,weatherlink.com 1.10,2013-01-30 22:37:00,
2013-01-30 17:52:00,55.5,49.0,29.31,SSW,208,4.0,14.0,79,0.00,,,0.64,weatherlink.com 1.10,2013-01-30 22:52:00,
2013-01-30 18:07:00,55.3,49.0,29.30,SSW,207,9.0,15.0,79,0.00,,,0.64,weatherlink.com 1.10,2013-01-30 23:07:00,
2013-01-30 18:22:00,55.0,49.0,29.30,SSW,199,6.0,12.0,80,0.00,,,0.64,weatherlink.com 1.10,2013-01-30 23:22:00,
2013-01-30 18:37:00,52.8,48.0,29.34,SW,232,9.0,22.0,85,0.04,,,0.68,weatherlink.com 1.10,2013-01-30 23:37:00,
2013-01-30 18:52:00,45.3,42.0,29.36,ESE,102,10.0,16.0,87,0.09,,,0.73,weatherlink.com 1.10,2013-01-30 23:52:00,
2013-01-30 19:07:00,43.0,39.0,29.37,West,260,7.0,23.0,87,0.09,,,0.73,weatherlink.com 1.10,2013-01-31 00:07:00,
2013-01-30 19:22:00,41.7,39.0,29.38,WSW,243,8.0,18.0,89,0.10,,,0.74,weatherlink.com 1.10,2013-01-31 00:22:00,
2013-01-30 19:37:00,41.3,39.0,29.40,South,185,5.0,9.0,90,0.05,,,0.74,weatherlink.com 1.10,2013-01-31 00:37:00,
2013-01-30 19:52:00,41.2,39.0,29.41,West,264,1.0,10.0,90,0.01,,,0.74,weatherlink.com 1.10,2013-01-31 00:52:00,
2013-01-30 20:07:00,41.1,38.0,29.42,South,184,6.0,11.0,88,0.01,,,0.74,weatherlink.com 1.10,2013-01-31 01:07:00,
2013-01-30 20:22:00,41.1,38.0,29.43,SW,228,4.0,8.0,88,0.00,,,0.74,weatherlink.com 1.10,2013-01-31 01:22:00,
2013-01-30 20:37:00,38.8,36.0,29.44,SSW,207,6.0,18.0,88,0.00,,,0.74,weatherlink.com 1.10,2013-01-31 01:37:00,
2013-01-30 20:52:00,38.3,35.0,29.45,WSW,246,5.0,14.0,88,0.00,,,0.74,weatherlink.com 1.10,2013-01-31 01:52:00,
2013-01-30 21:07:00,38.1,35.0,29.45,West,267,3.0,14.0,88,0.00,,,0.74,weatherlink.com 1.10,2013-01-31 02:07:00,
2013-01-30 21:22:00,37.9,34.0,29.47,WNW,297,1.0,17.0,87,0.00,,,0.74,weatherlink.com 1.10,2013-01-31 02:22:00,
2013-01-30 21:37:00,37.4,33.0,29.48,ENE,60,4.0,24.0,83,0.01,,,0.75,weatherlink.com 1.10,2013-01-31 02:37:00,
2013-01-30 21:52:00,36.7,32.0,29.49,NNW,330,16.0,18.0,83,0.01,,,0.75,weatherlink.com 1.10,2013-01-31 02:52:00,
2013-01-30 22:07:00,35.7,30.0,29.50,SW,236,6.0,18.0,81,0.01,,,0.75,weatherlink.com 1.10,2013-01-31 03:07:00,
2013-01-30 22:23:00,35.3,31.0,29.52,West,267,4.0,11.0,83,0.01,,,0.75,weatherlink.com 1.10,2013-01-31 03:23:00,
2013-01-30 22:38:00,34.9,29.0,29.54,SW,221,7.0,25.0,80,0.00,,,0.75,weatherlink.com 1.10,2013-01-31 03:38:00,
2013-01-30 22:53:00,34.6,28.0,29.55,North,349,7.0,13.0,78,0.00,,,0.75,weatherlink.com 1.10,2013-01-31 03:53:00,
2013-01-30 23:08:00,34.2,28.0,29.56,SW,235,7.0,19.0,78,0.00,,,0.75,weatherlink.com 1.10,2013-01-31 04:08:00,
2013-01-30 23:23:00,34.1,27.0,29.57,ENE,68,5.0,17.0,74,0.00,,,0.75,weatherlink.com 1.10,2013-01-31 04:23:00,
2013-01-30 23:38:00,34.0,27.0,29.58,SW,219,10.0,13.0,75,0.00,,,0.75,weatherlink.com 1.10,2013-01-31 04:38:00,
2013-01-30 23:53:00,33.9,27.0,29.60,SW,214,5.0,12.0,76,0.00,,,0.75,weatherlink.com 1.10,2013-01-31 04:53:00,